Location: Ferchesar
(52.6477°N, 12.4298°E)
Time: 06:21:58
(UTC+01:00)

Transit 2A Rocket - Pass Details

Date: 10 December 2021
Orbit: 585 x 917 km, 66.7° (Epoch: 25 January)

Event Time Altitude Azimuth Distance (km) Brightness Sun altitude
Rises 06:31:16 0° 206° (SSW) 3,366 8.3 -14.0°
Reaches altitude 10° 06:33:40 10° 203° (SSW) 2,478 7.6 -13.6°
Maximum altitude 06:39:24 66° 123° (ESE) 975 5.8 -12.8°
Drops below altitude 10° 06:45:28 10° 43° (NE) 2,616 8.0 -11.9°
Sets 06:48:02 0° 41° (NE) 3,567 8.7 -11.6°
